Tracking 31027 objects as of 19-Jul-2025
HD Live streaming from Space Station
objects crossing your sky now

OBJECT A

Track OBJECT A now!
10-day predictions


NORAD ID: 53346
Int'l Code: 2022-090A
Perigee: 508.2 km
Apogee: 511.5 km
Inclination: 97.4 °
Period: 94.7 minutes
Semi major axis: 6880 km
RCS: Unknown
Launch date: August 4, 2022
Source: People's Republic of China (PRC)
Launch site: Taiyaun Space Center, China (TSC)

Note: This is a ROCKET BODY
Your satellite tracking list
No more satellites can be added for tracking (max 5)
FOX-1B (RADFXSAT AO-91)
FOX-1D (AO-92)
FOX-1A (AO-85)
FUNCUBE 1 (AO-73)
SPACE STATION
Track 5 satellite(s)




NASA's NSSDC Master Catalog

Two Line Element Set (TLE):
1 53346U 22090A   25199.92066151  .00003413  00000-0  15685-3 0  9999
2 53346  97.3556 271.6790 0002360 194.7274 165.3894 15.21030083164140
Source of the keplerian elements: AFSPC